Flag for Germany Weather past 2 weeks in Lindlar, North Rhine-Westphalia, Germany

Now
64 °F

Partly sunny.


Feels Like: 64 °F
Forecast: 61 / 73 °F
Wind: 2 mph from East

Location: Koeln / Bonn

Current Time: Aug 2, 2014 at 7:10:21 AM

Latest Report: Aug 2, 2014 at 6:00 AM


Visibility: 25 mi

Pressure: 29.74 "Hg

Humidity: 73%

Dew point: 55 °F

Location of LindlarLocation

Historic Weather in Lindlar — Graph

°F

Lindlar temperature yesterday

Maximum temperature yesterday: 82 °F (at 2:00 PM)
Minimum temperature yesterday: 57 °F (at 6:00 AM)
Average temperature yesterday: 71 °F

Past Weeks' High & Low Weather Summary

 TemperatureHumidityPressure
High92 °F (Jul 19, 4:00 PM)100% (Jul 22, 6:00 AM)30.07 "Hg (Jul 22, 6:00 AM)
Low55 °F (Jul 25, 4:00 AM)28% (Jul 19, 3:00 PM)29.74 "Hg (Aug 2, 6:00 AM)
Average70 °F74%29.90 "Hg
* Reported Jul 18 6:00 AM — Aug 2 6:00 AM, Lindlar, Weather by CustomWeather, © 2014

Note: Actual official high and low records may vary slightly from our data, if they occured in-between our weather recording intervals... More about our weather records

Advertising

Lindlar weather history for previous 24 hours

 ConditionsComfort  
Time TempWeatherWind HumidityBarometerVisibility
6:00 AM
Aug 2
64 °FPartly sunny.2 mph73%29.74 "Hg25 mi
5:00 AM65 °FPassing clouds.3 mph71%29.75 "Hg28 mi
4:00 AM66 °FPassing clouds.3 mph70%29.76 "Hg28 mi
3:00 AM67 °FPassing clouds.3 mph71%29.77 "Hg28 mi
2:00 AM69 °FPassing clouds.3 mph68%29.78 "Hg31 mi
1:00 AM71 °FPassing clouds.3 mph67%29.78 "Hg31 mi
12:00 AM72 °FPassing clouds.3 mph63%29.78 "Hg31 mi
11:00 PM
Aug 1
73 °FPassing clouds.3 mph62%29.77 "Hg31 mi
10:00 PM75 °FPassing clouds.3 mph62%29.77 "Hg31 mi
9:00 PM76 °FPartly sunny.2 mph61%29.75 "Hg31 mi
8:00 PM76 °FPartly sunny.2 mph62%29.76 "Hg31 mi
7:00 PM81 °FScattered clouds.3 mph49%29.77 "Hg31 mi
6:00 PM81 °FPartly sunny.5 mph46%29.78 "Hg31 mi
5:00 PM82 °FPartly sunny.3 mph42%29.78 "Hg28 mi
4:00 PM80 °FScattered clouds.2 mph45%29.80 "Hg28 mi
3:00 PM81 °FPartly sunny.3 mph47%29.81 "Hg28 mi
2:00 PM82 °FScattered clouds.3 mph43%29.82 "Hg28 mi
1:00 PM79 °FScattered clouds.2 mph45%29.83 "Hg28 mi
12:00 PM77 °FPartly sunny.1 mph48%29.84 "Hg25 mi
11:00 AM75 °FScattered clouds.2 mph59%29.85 "Hg25 mi
10:00 AM71 °FScattered clouds.2 mph64%29.87 "Hg25 mi
9:00 AM68 °FPartly sunny.2 mph72%29.87 "Hg25 mi
8:00 AM64 °FOvercast.1 mph77%29.87 "Hg25 mi
7:00 AM59 °FOvercast.1 mph88%29.88 "Hg22 mi
Weather by CustomWeather, © 2014

See weather overviewHow to use our weather pages